Temp
63 63 63 63 65 66 66 66 65 65 66 66 66 66 66 65 66 61 55 64 68 75 71 63 64 62 61 56 56 52 43 39 41 44 46 50 51 54 54 51 52 54 53 60 63
64 65 65 66 66 65 65 65 65 65 66 66 66 66 65 64 59 56 68 74 74 73 64 60 58 60 54 53 52 47 40 44 49 48 46 50 48 49 49 49 49 53 58 61 61
64 65 65 65 65 65 65 65 65 65 65 66 66 65 65 62 55 54 72 74 74 70 64 62 60 58 51 52 50 45 43 48 51 52 51 49 48 51 46 46 50 51 55 57 57
65 65 65 65 65 65 65 65 65 65 65 65 65 65 65 59 45 58 72 72 72 66 63 60 57 51 46 45 51 43 50 50 51 52 50 47 51 48 49 51 53 54 54 53 54
63 63 63 64 64 64 64 65 65 65 65 65 65 65 61 51 49 64 69 68 65 63 57 56 51 48 46 46 48 44 47 51 52 51 49 50 48 48 49 54 54 55 56 54 54
62 62 62 62 63 63 63 64 65 65 64 65 65 64 56 47 61 63 62 64 62 59 55 54 50 51 48 46 44 47 48 48 49 50 50 48 47 47 50 51 55 55 53 53 53
61 61 61 61 62 62 63 64 64 64 64 65 65 63 53 50 60 61 63 60 61 59 54 55 54 50 46 44 50 48 45 46 47 50 48 48 42 44 48 52 53 53 53 53 53
60 60 60 60 61 61 62 63 63 64 64 65 66 57 47 62 60 62 62 59 61 61 59 58 56 52 48 48 47 43 41 35 46 49 49 47 41 48 49 47 51 51 51 51 52
60 59 60 60 60 61 61 63 64 64 65 65 58 53 45 65 58 59 58 56 58 59 58 64 55 47 48 40 38 38 33 34 41 48 47 46 40 48 50 50 47 48 48 49 50
60 59 59 60 60 61 62 63 63 62 63 64 61 51 53 51 57 59 59 59 54 53 53 51 45 41 39 37 29 31 32 34 36 44 43 40 41 46 46 48 45 44 46 47 48
60 59 59 60 60 61 58 56 53 52 53 47 47 49 52 58 59 57 58 55 53 50 41 45 39 34 36 37 37 36 33 33 37 44 42 39 41 46 48 44 42 42 45 46 47
59 59 60 60 61 61 55 50 47 51 46 52 53 53 56 55 51 55 58 49 48 41 43 41 35 41 44 42 39 37 33 34 40 43 41 39 40 43 44 44 46 46 46 46 46
59 59 59 60 60 54 50 49 54 52 45 49 52 52 52 55 48 50 54 48 44 41 39 36 40 46 43 39 38 36 34 33 35 39 38 36 37 40 44 45 46 46 44 46 46
58 59 59 60 55 50 47 53 53 52 33 46 50 52 55 53 48 56 54 49 45 40 40 39 44 43 39 39 39 35 41 40 37 33 29 37 29 34 38 40 43 45 44 45 46
58 58 59 60 51 49 51 53 52 51 25 48 50 58 54 48 49 50 54 49 42 41 40 38 39 38 39 40 41 39 41 37 35 29 28 30 25 34 37 38 41 45 46 46 46
57 58 59 54 49 49 52 51 51 35 27 43 49 47 46 48 49 50 49 51 47 41 41 39 43 40 39 42 41 43 37 35 31 30 23 28 28 31 34 38 38 42 45 46 46
57 57 56 55 48 51 51 48 34 28 44 41 41 45 42 43 45 46 43 40 36 34 31 37 38 41 43 38 40 39 32 24 24 21 24 30 28 33 38 40 42 42 44 44 45
56 57 55 54 50 51 49 43 29 39 37 44 43 43 39 42 41 43 39 36 39 35 29 27 31 38 42 38 34 34 33 23 18 18 21 30 27 34 39 41 42 45 42 45 45
56 49 49 51 52 49 45 28 33 37 42 41 42 37 38 41 40 41 35 36 36 35 32 30 33 40 41 40 39 33 28 34 27 21 19 26 32 38 39 39 40 43 45 45 45
47 48 49 51 50 47 39 36 37 44 44 42 35 37 32 36 38 38 35 38 38 39 37 34 30 37 39 40 39 36 38 27 24 17 20 24 26 30 35 38 40 40 42 46 44
47 47 52 50 49 44 32 34 42 46 46 41 37 36 35 35 35 34 36 39 40 39 38 35 32 33 35 34 34 33 30 30 28 26 20 15 24 36 38 40 40 39 41 44 45
43 43 52 49 43 36 36 41 47 44 45 43 41 39 37 37 35 35 36 39 43 42 36 35 31 23 33 36 38 35 33 32 23 22 23 19 23 39 38 40 41 38 41 40 41
41 41 50 49 36 35 40 43 44 43 42 42 40 43 41 37 34 37 38 43 43 41 38 38 28 19 29 31 34 32 34 34 29 26 23 17 25 39 33 37 40 40 41 41 41
41 39 44 43 39 38 37 39 40 44 44 44 42 42 39 37 39 36 37 42 42 42 49 44 30 29 25 30 31 29 32 34 31 21 26 29 34 40 42 43 43 42 41 37 39
40 38 38 36 39 38 38 39 39 40 43 44 40 41 40 34 35 35 37 39 41 45 39 37 24 29 32 33 32 33 33 34 29 31 24 32 31 38 39 38 37 36 38 39 40
40 39 39 37 39 37 39 37 39 40 42 40 39 40 40 36 38 35 36 34 36 35 34 33 24 20 18 31 31 30 33 33 33 34 33 33 31 41 40 34 34 35 38 38 39
41 42 41 39 37 35 37 39 41 41 42 44 41 38 37 39 41 42 42 41 40 36 32 32 28 22 23 28 27 21 29 32 31 31 32 26 32 34 33 37 37 36 37 39 40
MSLP
1016.73 1016.59 1016.53 1016.49 1016.44 1016.45 1016.62 1016.78 1016.74 1016.87 1016.99 1016.92 1016.77 1016.79 1016.69 1016.48 1016.23 1016.27 1016.76 1016.75 1016.17 1015.67 1015.42 1015.23 1015.22 1015.37 1015.43 1016.41 1016.96 1017.55 1018.53 1018.97 1018.34 1018.13 1017.84 1017.65 1017.58 1017.05 1017.08 1017.08 1016.91 1016.33 1016.09 1015.78 1015.41
1016.97 1016.80 1016.74 1016.76 1016.87 1016.97 1017.11 1017.03 1017.04 1017.23 1017.16 1017.07 1016.94 1016.93 1016.92 1016.75 1016.61 1016.82 1017.17 1016.48 1016.07 1015.72 1015.63 1015.69 1015.90 1015.83 1016.40 1017.03 1017.56 1018.11 1019.02 1018.62 1018.14 1017.97 1017.95 1017.87 1017.94 1017.77 1017.60 1017.43 1017.17 1016.75 1016.22 1015.91 1015.64
1017.20 1017.19 1017.22 1017.25 1017.39 1017.38 1017.35 1017.34 1017.41 1017.32 1017.24 1017.11 1017.00 1016.90 1016.78 1016.59 1016.82 1017.69 1017.04 1016.58 1016.23 1015.87 1015.73 1015.89 1016.07 1016.22 1016.99 1017.39 1017.98 1018.47 1018.63 1018.40 1018.01 1017.98 1018.05 1018.05 1018.05 1017.91 1017.94 1017.79 1017.37 1017.21 1016.76 1016.33 1016.08
1017.69 1017.68 1017.60 1017.71 1017.76 1017.63 1017.48 1017.43 1017.37 1017.33 1017.25 1017.11 1016.94 1016.87 1016.54 1016.50 1017.86 1017.80 1017.24 1016.84 1016.49 1015.89 1015.89 1016.23 1016.44 1017.02 1017.68 1017.94 1018.22 1018.61 1018.37 1018.39 1018.12 1018.08 1018.27 1018.17 1017.98 1018.05 1017.97 1017.33 1017.02 1017.12 1017.08 1016.74 1016.46
1018.23 1018.18 1018.01 1018.03 1017.88 1017.73 1017.68 1017.68 1017.61 1017.47 1017.28 1017.16 1017.05 1016.78 1016.57 1017.27 1018.16 1017.78 1017.43 1017.11 1016.60 1016.42 1016.83 1016.99 1017.41 1017.76 1018.18 1018.29 1018.52 1018.64 1018.57 1018.50 1018.29 1018.26 1018.28 1018.31 1018.18 1018.32 1017.64 1017.12 1017.13 1017.12 1016.82 1016.68 1016.56
1018.58 1018.44 1018.32 1018.20 1018.09 1018.04 1017.97 1017.88 1017.74 1017.59 1017.45 1017.27 1017.13 1016.63 1016.70 1017.79 1018.14 1017.93 1017.76 1017.37 1017.22 1017.06 1017.52 1017.64 1018.04 1018.18 1018.38 1018.57 1018.76 1018.86 1018.87 1018.68 1018.46 1018.33 1018.24 1018.32 1018.17 1018.31 1017.32 1017.17 1017.20 1017.17 1016.97 1016.86 1016.87
1018.77 1018.64 1018.49 1018.43 1018.34 1018.26 1018.13 1017.94 1017.76 1017.62 1017.43 1017.36 1017.01 1016.75 1017.48 1018.67 1018.20 1018.07 1017.88 1017.79 1017.72 1017.62 1018.00 1018.10 1018.22 1018.46 1018.72 1018.83 1018.98 1019.05 1019.09 1018.72 1018.74 1018.51 1018.24 1018.13 1018.21 1018.07 1017.50 1017.46 1017.40 1017.31 1017.05 1017.02 1016.88
1018.79 1018.72 1018.57 1018.45 1018.32 1018.16 1017.99 1017.83 1017.67 1017.55 1017.46 1017.16 1016.97 1017.22 1018.46 1018.30 1018.15 1018.13 1018.06 1018.03 1017.92 1017.92 1018.03 1018.18 1018.36 1018.71 1018.97 1019.17 1019.43 1019.60 1019.73 1019.67 1019.00 1018.71 1018.27 1018.36 1017.99 1017.30 1017.27 1017.67 1017.42 1017.31 1017.32 1017.25 1016.97
1018.76 1018.68 1018.60 1018.47 1018.33 1018.16 1018.00 1017.81 1017.69 1017.59 1017.42 1017.25 1017.31 1017.61 1018.67 1018.17 1018.29 1018.33 1018.23 1018.32 1018.22 1018.14 1018.17 1018.22 1018.62 1019.38 1019.51 1020.07 1020.42 1020.76 1020.76 1020.64 1019.66 1019.09 1018.96 1018.71 1018.28 1017.26 1017.31 1017.49 1017.57 1017.51 1017.59 1017.46 1017.14
1019.08 1018.82 1018.61 1018.54 1018.40 1018.15 1017.97 1017.85 1017.65 1017.34 1017.45 1017.50 1017.85 1018.49 1018.93 1019.06 1018.66 1018.44 1018.27 1018.28 1018.40 1018.49 1018.65 1018.92 1019.51 1020.21 1020.89 1020.93 1021.41 1021.58 1021.49 1021.12 1020.57 1019.58 1019.25 1018.95 1018.05 1017.58 1017.37 1017.66 1017.59 1017.66 1017.70 1017.58 1017.18
1019.21 1018.94 1018.73 1018.53 1018.42 1018.26 1018.08 1018.04 1018.72 1018.83 1018.87 1019.38 1019.42 1019.32 1019.29 1019.06 1018.78 1018.59 1018.55 1018.58 1018.65 1018.92 1019.50 1019.82 1020.47 1021.24 1021.48 1021.31 1021.21 1021.55 1021.71 1021.39 1020.54 1020.18 1019.81 1019.23 1018.48 1017.34 1016.91 1017.03 1017.24 1017.51 1017.60 1017.54 1017.36
1019.25 1019.03 1018.81 1018.60 1018.43 1018.33 1018.63 1019.50 1019.99 1020.13 1020.15 1019.76 1019.57 1019.51 1019.33 1019.26 1019.11 1018.99 1018.77 1019.02 1019.01 1019.71 1020.06 1020.56 1021.00 1021.14 1021.03 1020.96 1021.34 1021.55 1021.57 1021.27 1020.75 1020.58 1020.82 1019.73 1018.59 1017.38 1016.69 1016.65 1016.83 1017.18 1017.59 1017.72 1017.57
1019.29 1019.12 1018.86 1018.67 1018.57 1018.88 1019.66 1020.25 1020.21 1020.15 1020.17 1019.99 1019.56 1019.35 1019.30 1019.31 1019.44 1019.26 1019.14 1019.35 1019.73 1020.21 1020.68 1020.86 1020.99 1020.72 1020.74 1021.05 1021.23 1021.25 1021.36 1021.43 1021.73 1021.24 1020.90 1020.58 1018.85 1017.73 1017.02 1016.83 1016.87 1017.24 1017.66 1017.67 1017.62
1019.29 1018.98 1018.84 1018.67 1019.10 1019.67 1020.08 1020.14 1020.16 1020.20 1020.47 1020.36 1019.51 1019.25 1019.26 1019.22 1019.39 1019.32 1019.52 1019.86 1020.08 1020.55 1020.80 1020.88 1020.69 1020.69 1020.83 1021.03 1021.24 1021.14 1021.18 1021.54 1022.12 1022.58 1022.32 1021.38 1020.27 1018.36 1017.50 1017.07 1017.06 1017.39 1017.54 1017.57 1017.59
1019.27 1019.14 1018.85 1018.60 1019.45 1019.98 1020.33 1020.15 1020.05 1020.10 1021.40 1020.56 1019.61 1019.11 1019.27 1019.65 1019.72 1019.56 1019.65 1019.65 1020.18 1020.56 1021.03 1021.24 1021.08 1021.01 1021.00 1021.23 1021.30 1021.44 1021.47 1022.06 1022.49 1022.94 1023.04 1022.31 1021.89 1018.68 1017.88 1017.42 1017.35 1017.47 1017.66 1017.85 1017.76
1019.35 1019.03 1018.95 1019.33 1019.86 1020.36 1020.18 1020.11 1020.32 1020.79 1021.02 1020.43 1019.76 1019.61 1019.57 1019.59 1019.64 1019.54 1019.71 1019.87 1020.30 1020.72 1020.93 1021.28 1021.21 1021.26 1021.32 1021.29 1021.35 1021.54 1021.90 1022.60 1023.30 1023.65 1023.55 1022.49 1021.96 1019.22 1018.17 1017.44 1017.42 1017.53 1017.91 1018.07 1017.91
1019.48 1019.28 1019.07 1019.52 1020.21 1020.21 1020.24 1020.54 1021.15 1021.28 1021.32 1020.83 1020.28 1020.04 1020.10 1020.04 1019.85 1019.94 1020.22 1020.61 1021.20 1021.38 1022.17 1021.75 1021.60 1021.39 1021.27 1021.37 1021.63 1022.01 1022.83 1023.63 1024.24 1024.31 1023.76 1022.76 1022.06 1018.96 1017.98 1017.50 1017.48 1017.85 1018.12 1018.07 1017.92
1019.67 1019.44 1019.77 1019.98 1020.16 1020.18 1020.49 1021.05 1021.50 1021.64 1021.19 1020.80 1020.53 1020.39 1020.44 1020.37 1020.26 1020.29 1020.64 1021.39 1021.58 1021.95 1022.89 1022.88 1021.95 1021.64 1021.66 1021.91 1022.43 1023.03 1023.73 1024.82 1025.67 1025.84 1024.83 1023.02 1021.43 1018.73 1017.99 1017.78 1017.78 1017.92 1018.06 1018.04 1018.04
1019.78 1020.10 1020.25 1020.39 1020.23 1020.37 1020.80 1021.71 1022.06 1021.63 1021.16 1020.88 1020.58 1020.49 1020.59 1020.48 1020.58 1020.64 1021.05 1021.60 1021.89 1022.13 1022.70 1023.05 1022.48 1021.97 1022.02 1022.21 1022.72 1023.45 1024.06 1024.71 1025.49 1026.28 1025.81 1022.93 1020.83 1018.87 1018.29 1018.21 1018.14 1018.22 1018.26 1018.36 1018.47
1020.12 1020.35 1020.54 1020.32 1020.37 1020.72 1021.16 1022.17 1021.90 1021.39 1021.10 1021.02 1021.08 1021.12 1021.18 1021.11 1021.14 1021.22 1021.29 1021.51 1021.97 1022.26 1022.52 1023.39 1023.40 1022.63 1022.61 1022.72 1023.13 1023.35 1024.17 1025.10 1026.12 1026.59 1025.78 1023.24 1021.53 1019.41 1018.80 1018.54 1018.52 1018.61 1018.66 1018.47 1018.35
1020.36 1020.71 1020.33 1020.14 1020.32 1020.78 1022.29 1022.26 1021.69 1021.31 1021.13 1021.21 1021.28 1021.39 1021.50 1021.57 1021.61 1021.74 1021.69 1021.80 1022.09 1022.68 1022.97 1023.62 1024.30 1023.75 1023.38 1023.22 1023.23 1024.03 1024.42 1025.30 1026.17 1026.37 1026.04 1024.41 1021.14 1018.70 1018.33 1018.32 1018.56 1018.77 1018.80 1018.59 1018.53
1020.98 1021.16 1020.11 1019.90 1020.85 1022.08 1022.39 1021.84 1021.44 1021.36 1021.30 1021.40 1021.54 1021.68 1021.81 1021.91 1022.03 1022.06 1021.93 1021.83 1022.03 1022.54 1023.46 1024.12 1024.86 1024.99 1023.83 1023.42 1023.38 1023.60 1024.07 1024.88 1026.11 1026.32 1026.00 1024.80 1020.82 1018.68 1018.28 1018.19 1018.54 1018.95 1018.94 1018.73 1018.57
1022.37 1021.59 1020.36 1020.30 1021.60 1022.60 1022.15 1021.74 1021.39 1021.37 1021.44 1021.61 1021.74 1021.93 1022.03 1022.29 1022.51 1022.15 1022.01 1022.10 1022.38 1022.88 1023.38 1024.21 1025.36 1025.57 1024.38 1024.37 1023.94 1023.99 1024.08 1024.42 1025.14 1025.48 1024.90 1024.09 1020.32 1018.79 1018.61 1018.54 1018.59 1018.81 1018.76 1018.92 1019.07
1023.50 1022.85 1021.66 1021.94 1022.80 1022.46 1022.31 1021.91 1021.61 1021.35 1021.45 1021.58 1021.82 1022.04 1022.43 1022.61 1022.63 1022.63 1022.63 1022.58 1022.78 1023.19 1023.48 1024.21 1025.28 1025.66 1025.25 1024.37 1024.30 1024.42 1024.27 1024.48 1024.92 1025.26 1023.54 1021.75 1019.06 1019.03 1018.73 1018.68 1018.55 1018.50 1018.73 1018.97 1019.15
1023.88 1024.25 1024.08 1023.57 1023.44 1023.02 1022.71 1022.51 1022.08 1021.71 1021.66 1021.78 1022.07 1022.20 1022.55 1022.98 1023.05 1023.12 1023.14 1023.25 1023.30 1023.49 1024.12 1024.93 1025.64 1025.78 1025.21 1024.88 1024.58 1023.97 1024.10 1024.17 1023.94 1023.24 1023.43 1018.99 1019.82 1019.13 1019.38 1019.31 1019.18 1019.23 1019.13 1019.19 1019.17
1024.38 1024.98 1024.71 1024.35 1023.61 1023.27 1023.04 1022.78 1022.53 1022.17 1022.09 1022.18 1022.45 1022.53 1022.62 1022.90 1022.86 1023.24 1023.50 1023.94 1023.97 1024.06 1024.66 1025.52 1025.74 1026.17 1025.36 1024.80 1024.16 1023.12 1023.22 1022.62 1022.29 1021.55 1021.31 1020.75 1019.34 1019.59 1019.00 1019.06 1019.11 1019.17 1019.30 1019.44 1019.45
1024.37 1024.52 1025.07 1025.13 1024.57 1024.29 1023.57 1022.93 1022.70 1022.57 1022.45 1022.52 1022.75 1023.08 1023.22 1023.04 1023.08 1023.19 1023.35 1023.71 1023.86 1024.19 1024.87 1025.45 1026.02 1026.64 1025.11 1024.56 1023.96 1022.50 1020.74 1020.62 1020.67 1020.61 1020.59 1020.47 1019.71 1019.35 1019.36 1019.39 1019.24 1019.22 1019.28 1019.29 1019.20
Wind_Speed
8 7 9 8 10 11 10 11 11 9 7 6 8 9 9 11 4 6 8 5 8 13 7 2 7 6 4 5 5 3 6 0 2 2 3 2 5 3 2 3 4 4 2 5 8
5 6 10 14 12 10 10 10 10 7 6 5 7 7 7 6 3 10 7 12 12 10 4 7 5 5 5 3 4 6 4 6 3 2 3 3 1 3 5 5 4 4 6 6 7
16 14 14 12 10 9 9 8 6 6 6 7 7 7 8 1 4 4 12 14 13 9 2 2 1 3 4 4 4 2 5 2 3 2 1 3 3 3 2 5 7 6 9 9 7
14 12 11 9 8 7 8 7 6 7 8 8 8 8 8 1 4 4 14 14 12 8 3 4 6 4 3 2 1 0 3 2 3 1 1 3 4 4 5 8 3 6 7 6 9
12 11 9 8 7 8 7 7 7 7 8 9 8 9 3 7 3 5 14 10 5 5 6 4 5 2 4 1 1 1 2 2 5 8 6 2 7 6 8 11 7 7 8 9 8
10 10 9 9 8 7 6 6 6 7 7 8 9 4 4 8 4 7 8 5 6 6 6 6 3 1 4 2 2 1 3 6 5 5 4 3 3 3 4 2 5 8 9 7 7
9 8 7 7 7 7 6 6 6 6 7 7 8 4 10 4 3 6 7 3 4 3 3 3 2 2 1 2 4 2 6 6 0 4 3 3 0 6 3 5 7 9 8 7 7
8 8 7 7 8 8 6 5 6 6 7 8 7 5 5 3 2 4 5 3 5 3 3 3 3 4 2 1 4 5 4 5 2 6 2 2 8 4 3 5 13 10 7 7 8
8 7 7 7 8 7 5 4 4 7 6 7 4 5 2 6 4 4 1 2 3 3 3 2 3 3 6 3 5 7 2 2 9 3 4 5 8 7 3 8 10 8 7 7 8
8 6 5 6 7 6 5 3 8 7 5 2 3 5 4 3 4 4 3 2 3 2 3 5 6 4 5 6 2 3 4 4 6 5 4 5 13 10 5 7 9 7 6 7 8
10 8 5 4 5 7 4 4 6 7 9 4 1 2 2 6 2 3 3 2 1 5 4 4 7 2 2 1 2 1 3 4 5 5 7 5 13 17 10 4 5 2 5 7 8
12 10 6 5 6 6 4 5 1 2 6 2 1 1 1 1 3 4 3 3 4 4 3 6 3 4 1 1 2 4 3 4 5 2 3 6 16 9 3 1 3 4 6 7 7
12 10 9 5 3 6 4 4 1 0 5 1 1 1 2 2 0 6 4 2 4 4 3 5 3 1 1 0 1 3 3 2 3 8 2 7 6 5 3 3 3 4 3 4 6
12 11 8 3 7 2 2 1 1 1 7 9 6 4 2 2 4 1 2 1 3 3 3 3 0 1 2 2 1 4 2 3 5 6 4 5 6 4 3 2 3 6 6 7 7
12 10 8 6 6 3 2 1 1 4 6 4 4 0 0 0 2 2 1 2 2 2 3 1 1 2 2 1 1 3 2 3 1 2 4 1 3 8 3 2 2 5 7 8 8
12 9 3 5 4 1 1 2 3 10 3 4 2 4 3 3 3 3 1 4 1 3 3 2 0 1 1 2 0 5 3 4 4 2 2 1 4 6 3 3 0 2 6 7 8
11 7 5 2 3 1 2 4 8 8 3 3 3 4 1 4 3 5 4 6 4 5 8 6 1 1 2 3 1 7 6 5 7 5 5 3 1 9 3 2 2 2 5 7 6
6 3 4 3 0 2 3 6 8 2 2 1 1 2 2 4 3 6 3 4 5 5 4 4 7 2 2 3 1 3 3 6 5 3 6 4 7 6 3 2 3 4 2 4 7
4 2 3 4 1 2 6 8 6 5 1 3 2 4 4 2 3 6 2 3 2 1 4 2 5 1 2 1 2 1 1 3 2 1 2 4 7 6 2 3 3 5 5 6 6
3 2 1 4 1 4 7 4 3 2 2 1 1 2 2 4 5 5 1 2 3 0 1 4 4 0 1 1 3 1 4 3 3 1 5 6 6 6 6 6 5 4 5 7 4
4 4 3 2 2 6 5 4 2 1 2 2 0 2 1 2 1 2 2 1 2 2 2 4 4 5 1 4 6 1 0 3 2 4 4 3 8 7 8 8 9 4 4 7 8
3 2 3 1 6 2 2 2 1 2 2 1 2 2 3 1 2 3 4 4 5 6 4 1 4 4 9 0 1 1 4 6 5 5 4 3 9 1 6 7 7 3 6 7 7
2 2 2 3 4 1 2 0 1 3 2 2 1 4 1 2 3 4 2 3 4 4 6 5 0 4 9 5 2 3 4 4 3 2 8 4 8 2 1 4 3 5 5 5 4
3 4 5 5 1 4 2 1 1 2 1 3 2 2 1 2 4 3 2 2 2 2 1 4 4 8 8 6 4 4 5 4 4 3 8 14 26 12 11 14 13 14 10 1 3
4 1 1 1 2 2 1 1 2 2 1 3 1 4 6 3 2 4 1 4 0 2 3 3 6 6 8 8 7 12 11 14 15 17 13 24 19 15 10 9 7 5 3 3 5
2 3 4 1 1 3 1 4 4 2 4 3 3 2 5 6 8 4 3 3 7 1 4 0 5 2 5 9 14 19 15 19 22 23 23 22 28 17 11 3 3 2 2 4 5
1 1 3 3 2 2 3 2 3 1 1 3 2 1 4 7 6 8 7 6 7 7 7 6 4 2 7 1 6 10 12 16 4 5 8 9 8 2 2 4 4 2 2 4 6
Wind_Direction
103 107 107 136 131 104 109 107 96 91 84 63 40 20 14 10 24 42 49 329 343 335 341 332 33 8 45 61 43 97 59 327 246 206 265 314 12 299 308 271 340 280 278 272 307
79 94 99 91 94 103 102 90 83 72 51 33 29 8 350 348 43 59 330 351 351 348 40 46 16 1 50 53 26 78 100 221 208 202 243 296 189 311 344 335 288 299 298 291 309
74 79 83 88 89 88 85 71 61 44 26 14 8 347 329 269 71 334 331 350 350 349 119 97 60 51 64 47 23 129 183 210 260 206 174 261 271 209 225 294 236 273 298 310 310
52 63 74 80 85 74 58 43 24 17 12 1 357 341 333 33 108 274 334 346 350 356 63 39 34 53 74 83 18 324 237 210 278 119 306 265 308 292 202 236 251 276 276 279 312
39 42 40 43 39 35 27 10 3 8 2 358 350 335 63 49 69 318 337 337 359 30 49 58 60 85 134 145 11 165 290 272 284 291 264 285 250 240 263 267 295 297 319 326 336
32 31 25 23 18 8 358 353 352 355 356 349 342 328 69 72 282 330 331 350 14 45 30 44 104 130 101 119 126 329 289 285 309 295 286 282 278 114 283 311 321 340 330 337 335
17 19 17 16 10 355 341 346 353 360 357 341 355 57 59 171 299 325 357 8 359 45 79 50 74 83 129 60 340 348 346 334 193 319 303 302 124 219 261 334 337 329 334 337 331
7 5 7 8 3 354 342 336 341 346 336 352 3 63 81 284 271 7 347 349 10 32 81 92 60 102 64 274 22 36 48 19 297 341 286 38 277 262 3 1 328 327 331 335 323
14 11 1 359 355 352 340 330 344 333 320 336 43 79 57 323 20 313 350 2 339 36 30 67 64 80 28 51 23 10 330 344 316 38 346 62 275 274 313 338 302 315 319 326 324
15 14 22 5 355 354 336 329 329 13 16 26 55 48 5 316 305 340 322 354 40 5 40 48 47 64 32 42 220 314 335 292 254 305 6 295 269 284 282 244 278 303 315 333 335
13 4 5 31 18 5 31 23 23 357 39 81 282 113 308 298 293 349 350 6 6 52 49 19 65 102 229 190 120 176 239 260 265 313 344 289 291 294 297 271 283 231 352 345 328
10 6 12 25 31 62 65 76 106 176 87 2 132 108 273 346 358 322 355 85 52 57 22 27 101 215 225 77 226 230 270 297 274 268 334 330 301 297 326 60 116 47 354 330 327
4 5 353 346 85 48 84 122 328 109 102 353 180 76 315 45 38 318 34 27 78 58 21 136 184 151 80 59 278 240 218 220 247 326 261 299 304 352 12 69 54 21 316 309 303
2 1 353 310 49 167 67 299 352 162 74 322 354 358 22 54 358 341 4 128 44 148 153 103 123 141 195 180 176 341 193 30 330 17 286 21 279 312 342 36 17 343 336 322 328
2 11 34 60 144 76 162 332 351 53 58 274 309 160 164 136 301 9 18 40 117 106 98 237 116 4 77 31 295 246 20 278 220 184 16 351 72 271 341 287 329 330 333 337 326
349 359 123 35 48 23 83 77 51 45 266 357 305 356 29 7 346 310 70 47 116 96 21 93 183 119 215 287 247 315 21 59 57 95 17 260 138 280 207 203 133 350 352 338 340
334 358 68 84 152 213 76 54 39 100 296 327 332 5 288 318 354 28 43 15 58 48 12 346 18 348 39 13 48 28 34 339 352 6 224 340 356 245 269 185 118 16 352 339 353
331 45 16 72 83 115 62 54 72 190 219 318 315 299 46 1 6 0 57 30 32 74 87 69 331 35 356 89 172 41 117 148 246 263 280 312 240 254 224 139 82 79 8 359 2
116 21 45 338 62 73 77 55 188 204 222 346 327 69 339 9 17 28 55 187 185 57 116 66 281 32 47 101 102 134 81 160 113 268 20 252 288 305 167 139 92 68 37 343 335
91 63 5 312 86 65 73 187 181 212 151 107 52 35 330 319 6 20 276 185 159 70 99 185 316 39 23 89 36 108 154 61 2 296 262 283 276 237 219 191 160 88 34 344 324
52 58 257 353 87 51 116 211 201 69 43 60 212 315 319 322 354 299 269 255 171 133 69 126 113 290 11 198 183 102 164 69 134 175 205 275 260 212 205 196 167 138 324 298 308
80 44 295 20 53 61 113 191 112 162 65 93 122 203 210 237 268 261 240 229 169 145 141 92 147 275 239 157 360 194 203 161 136 257 245 205 265 304 245 185 148 348 322 326 299
38 251 314 64 118 37 275 121 172 145 205 154 237 200 166 234 277 215 276 31 133 145 164 189 290 346 330 5 14 222 206 180 139 73 212 185 259 213 248 267 262 346 352 5 28
7 354 336 48 15 114 99 246 216 179 208 173 185 99 109 252 212 285 292 17 182 209 214 150 183 190 218 226 167 217 205 213 170 200 271 232 267 262 292 299 330 342 316 94 91
39 295 243 320 355 90 67 326 232 228 201 184 197 200 177 240 241 225 211 346 236 277 159 154 206 236 254 275 271 265 253 249 243 244 239 270 254 279 279 292 288 289 346 72 25
71 11 351 260 317 130 145 220 214 274 162 240 212 181 194 200 197 208 160 174 225 77 183 33 264 89 274 245 250 267 261 249 245 258 260 268 273 278 292 259 299 338 55 18 323
172 128 99 332 12 88 238 175 157 358 344 12 161 80 275 252 237 237 216 209 220 189 201 176 183 359 273 359 317 296 242 232 231 207 217 243 255 274 293 298 276 244 219 283 282